map of CJS home
Great Circle Mapper logo
CJS - Airport
Location
City:  Ciudad Juárez, Chihuahua, México
Name:Abraham González International Airport
ICAO / IATA:MMCS / CJS

Details
Type:Airport (Aerodrome, Airfield)
Use:Public/Civil, International (customs port of entry)
Latitude:31°38'10"N (31.636133)
Longitude:106°25'43"W (-106.428666)
Datum:WGS 1984
Elevation:3904 ft (1190 m)
Runways:2
Longest:8858 × 148 ft (2700 × 45 m), paved

Time
Time Zone:UTC-7 (DST-6)
Local Time:

Weather
METAR:MMCS 202141Z 15006KT 10SM SCT040TCU SCT250 22/13 A2997 RMK 8/203 CBS VC
TAF:MMCS 200514Z 2006/2106 27010KT 6SM RA OVC050CB
FM201000 10005KT P6SM SCT040 BKN100
FM201500 10005KT P6SM SCT040 BKN250 PROB40 2023/2103 5SM RA BKN030 BKN250

Related Locations
Nearby:
Farthest:RRG: 11401 mi / 18348 km
Plaine Corail, Rodrigues Island, MU

Find:

   beyond  
but within

Other Information
Maps:
NOTAMs:
Links:
Sources:

  
flag of México   

Sectional Chart

Flight Planning
at skyvector.com

Satellite Image

Google Maps Satellite View

 

Copyright © 2004-2014 Karl L. Swartz. All rights reserved.
The Great Circle Mapper name and logo are trademarks of the Great Circle Mapper.
All other trademarks mentioned herein belong to their respective owners.
Please see credits for attibutions and further copyright information.

  Follow gcmap on Facebook Follow gcmap on Twitter

hCard Microformat

Geo Microformat